Regional Weather Roundup
Issued by NWS San Diego, CA

Home | Current Version | Previous Version | Text Only | Print | Product List | Glossary On
Versions: 1 2 3 4 5 6 7 8 9 10 11 12 13 14 15 16 17 18 19 20 21 22 23 24 25 26 27 28 29 30 31 32 33 34 35 36 37 38 39 40 41 42 43 44 45 46 47 48 49 50
000
ASUS46 KSGX 180304
RWRSGX

SAN DIEGO HOURLY WEATHER ROUNDUP
NATIONAL WEATHER SERVICE SAN DIEGO CA
800 PM PDT TUE OCT 17 2017

NOTE: "FAIR" INDICATES FEW OR NO CLOUDS BELOW 12,000 FEET WITH NO
SIGNIFICANT WEATHER AND/OR OBSTRUCTIONS TO VISIBILITY.

CAZ042-043-060-061-PZZ750-775-180400-

GREATER SAN DIEGO AREA

CITY           SKY/WX    TMP DP  RH WIND       PRES   REMARKS
SAN DIEGO AP   PTCLDY    77  51  40 CALM      29.95R
NATIONAL CITY    N/A     75  64  69 CALM      29.96R
CHULA VISTA      N/A     72  65  80 CALM      29.86R
IMPERIAL BEACH MOCLDY    67  63  87 E5        29.94S
BROWN FIELD    CLEAR     69  64  84 CALM      29.96R
MONTGOMERY FLD CLEAR     77  51  40 CALM      29.95S
GILLESPIE FLD  CLEAR     75  54  46 CALM      29.96

$$

NORTH SAN DIEGO COUNTY

CITY           SKY/WX    TMP DP  RH WIND       PRES   REMARKS
CAMP PENDLETON PTCLDY    67  60  78 CALM      29.93S
OCEANSIDE AP   CLEAR     67  61  81 CALM      29.92S
OCEANSIDE HBR    N/A     69  66  89 CALM      29.95R
VISTA            N/A     70  57  63 CALM      29.91R
CARLSBAD       CLEAR     71  59  65 E3        29.93S
DEL MAR          N/A     69  59  70 CALM      29.95S
LA JOLLA SCRIP   N/A     72  55  54 E2        29.93S
FALLBROOK        N/A     73  50  44 CALM      29.95R
ESCONDIDO        N/A     76  50  40 CALM      29.95R
SAN MARCOS       N/A     75  49  38 CALM      29.95R
POWAY            N/A     71  55  55 CALM      29.95R

$$

EAST SAN DIEGO COUNTY

CITY           SKY/WX    TMP DP  RH WIND       PRES   REMARKS
RAMONA         CLEAR     69  44  40 CALM      29.99R
SANTEE LAKES     N/A     74  54  49 CALM      29.93R
LA MESA          N/A     74  56  54 CALM      29.86S
JAMUL            N/A     72  57  59 CALM      29.94R
DESCANSO N       N/A     65  34  32 NE6       29.91R
CAMPO            N/A     64  30  27 NE6       30.03R

$$

ORANGE COUNTY AND THE LOS ANGELES BASIN

CITY           SKY/WX    TMP DP  RH WIND       PRES   REMARKS
JOHN WAYNE AP  PTCLDY    73  60  63 SW7       29.91S
LAGUNA BEACH     N/A     70  58  64 E5        29.87S
LAKE FOREST FR   N/A     77  41  28 CALM      29.79S
HUNTINGTON BCH   N/A     69  64  83 CALM      29.92S
LOS ALAMITOS   PTCLDY    69  59  69 CALM      29.91R
FULLERTON      CLEAR     78  58  49 CALM      29.90S
LONG BEACH     CLEAR     80  49  33 W5        29.91R
L.A. AP        PTCLDY    75  55  49 S7        29.91R
L.A. DOWNTOWN  CLEAR     77  52  41 CALM      29.90S

$$

THE INLAND EMPIRE

CITY           SKY/WX    TMP DP  RH WIND       PRES   REMARKS
CHINO          PTCLDY    76  41  28 N6        29.94S
ONTARIO        MOCLDY    81  27  14 W6        29.95R
SAN BERNARDINO PTCLDY    82  37  20 CALM      29.97R
RIVERSIDE AP   CLEAR     82  38  20 N3        29.94S
MORENO VALLEY    N/A     80  41  25 CALM      28.11R
MARCH ARB      CLEAR     75  37  25 SW3       29.98R
HORSETHIEF CYN   N/A     79  31  17 CALM      29.92R
PERRIS           N/A     80  39  22 CALM        N/A
HEMET EAST       N/A     78  28  16 CALM      30.00R
FRENCH VALLEY  FAIR      75  41  29 E5        29.98S
TEMECULA         N/A     77  43  29 CALM      30.01R

$$

SAN BERNARDINO AND RIVERSIDE COUNTY MOUNTAINS

CITY           SKY/WX    TMP DP  RH WIND       PRES   REMARKS
BIG BEAR AP    PTCLDY    52  23  32 CALM      30.31S

$$

SOUTHERN DESERT INCLUDING THE COACHELLA VALLEY

CITY           SKY/WX    TMP DP  RH WIND       PRES   REMARKS
PALM SPRINGS   CLEAR     87  29  12 NE6       29.90R
THOUSAND PALMS   N/A     84  31  15 E5        29.85R
PALM DESERT      N/A     82  42  23 CALM      31.55S
THERMAL        CLEAR     72  44  36 CALM      29.84R
BLYTHE         PTCLDY    80  27  14 CALM      29.88S
IMPERIAL AP    PTCLDY    81  38  21 CALM      29.85R
EL CENTRO NAS  MOCLDY    82  26  13 CALM      29.87R

$$

UPPER DESERT

CITY           SKY/WX    TMP DP  RH WIND       PRES   REMARKS
VICTORVILLE AP CLEAR     77  21  12 W12       30.06R
HESPERIA         N/A     77  36  22 NW1       30.08R
PALMDALE       CLEAR     78  10   7 W15G32    30.06R
LANCASTER      PTCLDY    76  16  10 W16       30.04R
EDWARDS AFB    MOCLDY    78  12   8 W14       30.01R
DAGGETT        PTCLDY    74  15  10 W5        29.98R
29 PALMS N     PTCLDY    81   3   5 S6        30.05R
NEEDLES        CLEAR     83  11   6 W8        29.91S

$$

REGIONAL REPORTS

CITY           SKY/WX    TMP DP  RH WIND       PRES   REMARKS
SANTA BARBARA  PTCLDY    73  44  35 S6        29.88S
SANDBERG       CLEAR     69  18  14 N12G23    30.19S
LAS VEGAS NV   MOCLDY    77  18  11 SW3       29.99S
PHOENIX AZ     MOCLDY    86  49  27 SW3       29.89R
ENSENADA NW      N/A     69  32  25 CALM      29.91S

$$

OFFSHORE ISLANDS

CITY           SKY/WX    TMP DP  RH WIND       PRES   REMARKS
CATALINA ARPT  CLEAR     81  25  12 W6        30.00S
SAN NICOLAS IS MOCLDY    73  23  15 W22       29.95S

$$

MARINE AND OFFSHORE BUOY REPORTS

STATION/POSITION SKY/WX   TEMP    WIND        PRES    VSBY  SWELL
                          AIR SEA DIR/SP/G                  HT/PER/DIR
                          (F)     (DEG/KT/KT) (MB)    (MI)  (FT/S/D)
TANNER BANKS               69 66  320/ 16/ 19 1013.9          5/ 40/17
S CLEMENTE BASIN           70 70  290/  8/ 10 1013.4          5/200/17
SAN NICOLAS IS.               63                N/A           3/190/18
SO. S. ROSA ISLA           65 64  300/ 17/ 21 1013.6F         5/210/17
W. S. BARBARA CH           67 64  300/ 19/ 23 1013.6S         3/290/13
M. S. BARBARA CH           72 67  300/  4/  8 1012.8R         3/250/ 5
S. MONICA BASIN               70  180/  4/  6 1012.0S         5/180/17
S PEDRO CHANNEL               69                N/A           2/180/18
CMP PENDLETON NS              68                N/A           3/220/18
OCEANSIDE OFFSHR              71                N/A           3/190/17
TORREY PINES OTR              71                N/A           3/200/18
SAN DIEGO BAY                 74              1014.1
POINT LOMA SOUTH              70                N/A           5/200/18

$$





USA.gov is the U.S. government's official web portal to all federal, state and local government web resources and services.